Location: Waning Moon II Observatory
(30.3730°N, 89.7620°W)
Time: 05:43:45
(UTC-05:00)

Cosmos 1825 Rocket - Visible Passes

Search period start: 24 July 2016 00:00
Search period end: 03 August 2016 00:00
Orbit: 604 x 631 km, 82.5° (Epoch: 23 July)

Date Brightness Start Highest point End Pass type
(mag) Time Alt. Az. Time Alt. Az. Time Alt. Az.
24 Jul 6.5 02:12:32 10° N 02:13:04 13° N 02:13:04 13° N visible
25 Jul 6.6 02:29:43 10° NNW 02:29:44 10° NNW 02:29:44 10° NNW visible
27 Jul 6.8 01:25:53 10° N 01:25:59 11° N 01:25:59 11° N visible
28 Jul 6.8 01:42:41 10° N 01:42:41 10° N 01:42:41 10° N visible
